[[[{"header":{"parameterUnit":"kt","parameterCategory":2,"dx":1,"dy":1,"la1":30.253999710083008,"la2":30.299108505249023,"lo1":-89.0895004272461,"lo2":-89.04439544677734,"nx":28,"ny":28,"refTime":"2022-09-17T21:00:00:Z","depth":0,"parameterNumber":1,"parameterNumberName":"U-component_of_WINDS"},"data":[-7.9531,-7.9636,-7.9605,-7.9711,-7.9701,-7.9767,-7.9781,-7.9796,-7.9799,-7.9876,-7.9914,-7.9893,-7.9883,-7.9921,-7.9961,-7.995,-7.9968,-8.0031,-8.0007,-7.9758,-7.9722,-7.9687,-7.9657,-8.0036,-8.0037,-8.0266,-8.0269,-8.027,-7.9357,-7.9348,-7.9395,-7.9418,-7.9458,-7.938,-7.9392,-7.943,-7.9491,-7.9496,-7.9531,-7.9596,-7.9642,-7.961,-7.9649,-7.9698,-7.9661,-7.971,-7.9704,-7.9703,-7.9438,-7.9408,-7.9739,-7.9739,-7.9739,-7.9739,-7.9739,-7.9739,-7.9032,-7.9097,-7.909,-7.9139,-7.9142,-7.9158,-7.9214,-7.9184,-7.9229,-7.9264,-7.9216,-7.9285,-7.9283,-7.9312,-7.9313,-7.9366,-7.9304,-7.9347,-7.9357,-7.9367,-7.9384,-7.9055,-7.9371,-7.937,-7.9369,-7.9368,-7.9367,0,-7.8782,-7.875,-7.8791,-7.8823,-7.8857,-7.8878,-7.8892,-7.8926,-7.8844,-7.8884,-7.8939,-7.8965,-7.9017,-7.9064,-7.9092,-7.9083,-7.9001,-7.899,-7.9019,-7.904,-7.9059,-7.9048,-7.8614,-7.898,-7.8976,-7.8974,-7.8972,-7.897,-7.8449,-7.8528,-7.8503,-7.8537,-7.8534,-7.859,-7.8615,-7.8536,-7.8567,-7.8572,-7.8633,-7.8679,-7.8711,-7.8805,-7.8766,-7.8805,-7.8764,-7.8907,-7.8768,-7.8789,-7.8762,-7.8757,-7.8764,-7.8934,-7.8938,-7.8942,-7.8945,0,-7.8264,-7.8206,-7.8317,-7.8283,-7.8277,-7.8364,-7.8335,-7.8396,-7.8358,-7.8436,-7.845,-7.839,-7.8445,-7.8382,-7.8432,-7.8397,-7.8541,-7.8502,-7.8542,-7.8529,-7.8649,-7.8637,-7.9052,-7.9102,-7.8712,-7.8716,-7.8719,0,-7.7955,-7.8061,-7.7968,-7.8034,-7.8151,-7.8065,-7.8183,-7.816,-7.8153,-7.8214,-7.8111,-7.817,-7.8079,-7.813,-7.8079,-7.8185,-7.8195,-7.8173,-7.8157,-7.818,-7.8182,-7.819,-7.817,-7.8122,-7.812,-7.8118,-7.8116,0,-7.7668,-7.7742,-7.785,-7.7857,-7.7829,-7.7883,-7.7874,-7.7863,-7.7888,-7.7911,-7.7926,-7.7959,-7.7977,-7.8005,-7.7937,-7.7845,-7.8066,-7.7925,-7.8043,-7.8045,-7.809,-7.8087,-7.8476,-7.8114,-7.8113,-7.8112,-7.8112,0,-7.7406,-7.7429,-7.7596,-7.7569,-7.7591,-7.7663,-7.7687,-7.7734,-7.7731,-7.7701,-7.7718,-7.7639,-7.7727,-7.7592,-7.7712,-7.7611,-7.7635,-7.7622,-7.7629,-7.7628,-7.7477,-7.77,-7.808,-7.8115,-7.7635,-7.7631,-7.7628,0,-7.7093,-7.7244,-7.7169,-7.7329,-7.7388,-7.7265,-7.7344,-7.7342,-7.7309,-7.7355,-7.7319,-7.7372,-7.7258,-7.7265,-7.7334,-7.7297,-7.7429,-7.7278,-7.7344,-7.7347,-7.7345,-7.7695,-7.7764,-7.8005,-7.7576,-7.7582,-7.7586,0,-7.684,-7.6801,-7.6835,-7.6837,-7.682,-7.6868,-7.696,-7.6992,-7.7026,-7.7036,-7.7108,-7.7183,-7.7099,-7.7111,-7.7048,-7.7123,-7.7337,-7.7021,-7.702,-7.7078,-7.7545,-7.7611,-7.7652,-7.7279,-7.7285,-7.729,-7.7545,0,-7.6454,-7.6519,-7.6608,-7.6616,-7.6643,-7.6739,-7.6665,-7.6703,-7.6639,-7.66,-7.6706,-7.6686,-7.6717,-7.6747,-7.6684,-7.6875,-7.6831,-7.674,-7.6599,-7.6831,-7.6912,-7.6946,-7.6484,-7.6479,-7.6476,-7.6472,0,0,-7.6166,-7.6257,-7.6168,-7.625,-7.6267,-7.6133,-7.6241,-7.6242,-7.6246,-7.6261,-7.6183,-7.6283,-7.6269,-7.6405,-7.6472,-7.6486,-7.6512,-7.6432,-7.6722,-7.675,-7.6776,-7.6865,-7.6901,-7.6466,-7.6464,-7.6463,-7.6462,0,-7.6007,-7.5995,-7.6102,-7.6099,-7.6089,-7.604,-7.6067,-7.6033,-7.6012,-7.6114,-7.6,-7.6055,-7.6136,-7.6135,-7.6145,-7.6416,-7.6325,-7.6433,-7.6602,-7.6686,-7.6719,-7.6748,-7.6843,-7.6878,-7.6452,-7.6453,-7.6453,0,-7.5742,-7.5716,-7.576,-7.579,-7.5781,-7.5845,-7.568,-7.5754,-7.58,-7.5645,-7.5748,-7.5726,-7.5718,-7.5857,-7.5916,-7.5846,-7.6158,-7.6046,-7.6068,-7.6072,-7.6149,-7.6189,-7.6225,-7.5753,-7.5751,-7.5749,0,0,-7.5614,-7.5673,-7.5617,-7.5749,-7.5752,-7.568,-7.5705,-7.5641,-7.5636,-7.5634,-7.5602,-7.5601,-7.5647,-7.5679,-7.5717,-7.5881,-7.5871,-7.5963,-7.5996,-7.6023,-7.6042,-7.6127,-7.6166,-7.5741,-7.5741,-7.574,0,0,-7.5552,-7.5491,-7.5425,-7.5568,-7.5568,-7.552,-7.5603,-7.5522,-7.5548,-7.5527,-7.5422,-7.5417,-7.5545,-7.5527,-7.5429,-7.5665,-7.5527,-7.5549,-7.567,-7.5711,-7.5743,-7.5743,-7.5253,0,0,0,0,0,-7.5347,-7.5498,-7.544,-7.5452,-7.5487,-7.5553,-7.5557,-7.5473,-7.5377,-7.5446,-7.5406,-7.5306,-7.5453,-7.5363,-7.5377,-7.5486,-7.5637,-7.5655,-7.5673,-7.5867,-7.5911,-7.5947,0,0,0,0,0,0,-7.5351,-7.5366,-7.5435,-7.5395,-7.5402,-7.5547,-7.5366,-7.5347,-7.5368,-7.5347,-7.5317,-7.5305,-7.5234,-7.535,-7.5364,-7.5469,-7.5248,-7.5644,-7.566,-7.5674,-7.5882,-7.5917,-7.5948,0,0,0,0,0,-7.5354,-7.5366,-7.5443,-7.5392,-7.5398,-7.5323,-7.536,-7.5342,-7.5357,-7.5293,-7.5277,-7.5291,-7.524,-7.5246,-7.5358,-7.5465,-7.5237,-7.5243,-7.5654,-7.5667,-7.5678,-7.5899,0,0,0,0,0,0,-7.5356,-7.5351,-7.5442,-7.5441,-7.5327,-7.5313,-7.5308,-7.5339,-7.5299,-7.5286,-7.5261,-7.5246,-7.5245,-7.5249,-7.5254,-7.5468,-7.5229,-7.5235,-7.5238,-7.5664,-7.5673,-7.5682,0,0,0,0,0,0,-7.5344,-7.5351,-7.5442,-7.5364,-7.5353,-7.5305,-7.53,-7.5382,-7.53,-7.5269,-7.5254,-7.5255,-7.5237,-7.5252,-7.5256,-7.5388,-7.5222,-7.5228,-7.5232,-7.5234,-7.5672,-7.5679,0,0,0,0,0,0,-7.5345,-7.5351,-7.5364,-7.5356,-7.5345,-7.5325,-7.5375,-7.5416,-7.5234,-7.5273,-7.5215,-7.5207,-7.5244,-7.5245,-7.5258,-7.5389,-7.5388,-7.5223,-7.5226,-7.5229,-7.5231,0,0,0,0,0,0,0,-7.5346,-7.5325,-7.545,-7.5349,-7.5339,-7.543,-7.5429,-7.5429,-7.5232,-7.5225,-7.5217,-7.521,-7.5192,-7.5197,-7.5203,-7.539,0,0,-7.5222,-7.5225,0,0,0,0,0,0,0,0,-7.5321,-7.5324,-7.545,-7.545,-7.545,-7.5429,-7.5429,-7.5429,-7.5231,-7.5225,-7.5219,-7.5213,-7.5193,-7.5198,-7.5203,0,0,0,0,0,0,0,0,0,0,0,0,0,0,0,-7.545,-7.545,0,-7.5429,-7.5429,-7.5429,-7.523,-7.5225,-7.522,-7.5215,-7.5194,-7.5198,-7.5202,0,0,0,0,0,0,0,0,0,0,0,0,0,0,0,0,0,0,0,0,0,0,0,0,0,0,0,0,0,0,0,0,0,0,0,0,0,0,0,0,0,0,0,0,0,0,0,0,0,0,0,0,0,0,0,0,0,0,0,0,0,0,0,0,0,0,0,0,0]}],[{"header":{"parameterUnit":"kt","parameterCategory":2,"dx":1,"dy":1,"la1":30.253999710083008,"la2":30.299108505249023,"lo1":-89.0895004272461,"lo2":-89.04439544677734,"nx":28,"ny":28,"refTime":"2022-09-17T21:00:00:Z","depth":0,"parameterNumber":2,"parameterNumberName":"V-component_of_WINDS"},"data":[1.9568,1.9542,1.9537,1.9504,1.9492,1.9468,1.9457,1.9442,1.9427,1.9396,1.9376,1.9364,1.9344,1.9317,1.9293,1.9288,1.9278,1.9276,1.9269,1.929,1.9292,1.9294,1.9301,1.9274,1.9274,1.9249,1.9249,1.9248,1.9589,1.9579,1.9559,1.9536,1.9519,1.9519,1.9499,1.9484,1.9461,1.9442,1.9422,1.9392,1.9366,1.9345,1.9319,1.9304,1.93,1.9297,1.9297,1.9294,1.9317,1.9324,1.9301,1.9301,1.9301,1.9301,1.9301,1.9301,1.9626,1.9611,1.9593,1.9571,1.9557,1.9541,1.9524,1.9511,1.9489,1.9462,1.9455,1.9427,1.9404,1.9366,1.9349,1.9326,1.9327,1.932,1.9318,1.9316,1.9316,1.9356,1.9321,1.9321,1.9321,1.9321,1.9321,0,1.9651,1.9647,1.9627,1.9605,1.9589,1.957,1.9551,1.954,1.9523,1.9506,1.9479,1.9462,1.9426,1.9398,1.937,1.9353,1.9346,1.9344,1.9339,1.9342,1.935,1.9346,1.9383,1.9344,1.9344,1.9344,1.9344,1.9344,1.9688,1.9669,1.9646,1.9633,1.962,1.9598,1.9583,1.957,1.9553,1.9526,1.9511,1.9483,1.946,1.9415,1.9394,1.9366,1.9361,1.9348,1.9356,1.9362,1.9361,1.9362,1.936,1.9346,1.9346,1.9345,1.9345,0,1.9709,1.9697,1.9665,1.9642,1.9635,1.9616,1.9595,1.9576,1.9563,1.9536,1.9528,1.9506,1.9478,1.9459,1.9421,1.9412,1.9378,1.9374,1.9387,1.9385,1.9371,1.9373,1.9328,1.9322,1.935,1.935,1.935,0,1.9735,1.971,1.9693,1.9675,1.9647,1.9634,1.9606,1.9592,1.9571,1.9549,1.954,1.9519,1.9497,1.9473,1.9459,1.9427,1.942,1.941,1.9406,1.9411,1.9412,1.9398,1.9399,1.9398,1.9398,1.9399,1.9399,0,1.9769,1.9729,1.97,1.9689,1.9659,1.9645,1.9631,1.9607,1.959,1.9566,1.9555,1.9526,1.9509,1.9487,1.9469,1.9475,1.9429,1.9434,1.9419,1.9419,1.9407,1.9408,1.9376,1.9399,1.9399,1.9399,1.9399,0,1.9786,1.9765,1.9724,1.9699,1.9689,1.9668,1.9641,1.9619,1.9593,1.9584,1.9563,1.9553,1.9523,1.953,1.9489,1.9503,1.9487,1.9475,1.9474,1.9468,1.9476,1.946,1.9432,1.9428,1.9466,1.9467,1.9467,0,1.983,1.9784,1.9773,1.9733,1.9709,1.9701,1.9678,1.9655,1.964,1.9617,1.9599,1.957,1.9571,1.9558,1.9541,1.952,1.9502,1.9522,1.9484,1.9483,1.9492,1.9467,1.9467,1.9441,1.9474,1.9473,1.9473,0,1.9861,1.9825,1.9818,1.9804,1.9773,1.9752,1.9725,1.9694,1.9679,1.9653,1.9629,1.9587,1.9587,1.9565,1.9552,1.9535,1.9514,1.9535,1.9534,1.9532,1.9475,1.9476,1.9472,1.9509,1.9508,1.9507,1.9478,0,1.9891,1.9865,1.9847,1.9815,1.9795,1.9768,1.9749,1.9731,1.9722,1.9706,1.9669,1.9641,1.9606,1.9595,1.9583,1.955,1.9551,1.9549,1.9552,1.9536,1.9526,1.9522,1.957,1.957,1.957,1.957,0,0,1.9935,1.9897,1.9883,1.9857,1.9839,1.983,1.9802,1.9783,1.9744,1.9731,1.9734,1.9669,1.9645,1.9601,1.9595,1.9579,1.9571,1.9576,1.9544,1.9541,1.9539,1.9528,1.9524,1.957,1.957,1.957,1.957,0,1.9942,1.9923,1.9897,1.9878,1.9849,1.9833,1.9827,1.9794,1.9782,1.9745,1.9734,1.9708,1.9655,1.9632,1.9613,1.9582,1.9573,1.9573,1.9565,1.9544,1.9542,1.9539,1.9529,1.9525,1.957,1.957,1.957,0,1.9969,1.9947,1.9932,1.9892,1.9871,1.9845,1.9846,1.9817,1.9797,1.9781,1.9744,1.9725,1.969,1.9651,1.9632,1.9633,1.9577,1.9589,1.9588,1.9585,1.9564,1.9561,1.9558,1.9595,1.9596,1.9596,0,0,1.9977,1.9952,1.9922,1.9892,1.988,1.9855,1.9838,1.9827,1.9799,1.9787,1.9761,1.9732,1.9701,1.968,1.965,1.9609,1.96,1.9593,1.9592,1.9591,1.9587,1.9566,1.9563,1.9597,1.9597,1.9597,0,0,1.9979,1.9944,1.9941,1.9903,1.9879,1.9844,1.9825,1.9819,1.9789,1.979,1.9765,1.9756,1.9719,1.9698,1.9712,1.965,1.9653,1.965,1.9664,1.9662,1.9661,1.9665,1.9704,0,0,0,0,0,1.9975,1.9949,1.9947,1.9937,1.9883,1.9846,1.9839,1.9821,1.9825,1.9811,1.9789,1.978,1.9701,1.9713,1.9702,1.9686,1.9606,1.9605,1.9603,1.9612,1.961,1.9609,0,0,0,0,0,0,1.9971,1.996,1.9947,1.9912,1.99,1.9847,1.9851,1.9845,1.9826,1.9826,1.9785,1.9778,1.9759,1.9717,1.9707,1.9693,1.9707,1.9606,1.9604,1.9603,1.9611,1.961,1.9609,0,0,0,0,0,1.9968,1.9959,1.9878,1.9912,1.9901,1.9871,1.9851,1.9847,1.9831,1.9796,1.9789,1.9819,1.976,1.975,1.9711,1.9697,1.9713,1.971,1.9605,1.9604,1.9602,1.9611,0,0,0,0,0,0,1.9966,1.9953,1.9876,1.9872,1.9921,1.9874,1.9866,1.9848,1.9802,1.9796,1.9829,1.9829,1.9759,1.9752,1.9745,1.9701,1.9719,1.9715,1.9713,1.9604,1.9603,1.9602,0,0,0,0,0,0,1.9958,1.995,1.9873,1.9885,1.9882,1.9876,1.9869,1.9831,1.9801,1.9838,1.9837,1.9829,1.9769,1.9753,1.9748,1.969,1.9723,1.9719,1.9717,1.9716,1.9603,1.9602,0,0,0,0,0,0,1.9954,1.9947,1.9886,1.9884,1.9881,1.9834,1.9842,1.9787,1.9815,1.984,1.9817,1.9818,1.977,1.9764,1.975,1.9694,1.9691,1.9722,1.972,1.9719,1.9718,0,0,0,0,0,0,0,1.9951,2.0003,1.99,1.9883,1.988,1.9834,1.9833,1.9832,1.9816,1.9816,1.9817,1.9818,1.9742,1.9738,1.9734,1.9698,0,0,1.9723,1.9721,0,0,0,0,0,0,0,0,2.0005,2.0003,1.99,1.9899,1.9898,1.9834,1.9833,1.9832,1.9816,1.9816,1.9817,1.9817,1.9741,1.9738,1.9735,0,0,0,0,0,0,0,0,0,0,0,0,0,0,0,1.99,1.9899,0,1.9834,1.9833,1.9832,1.9816,1.9816,1.9817,1.9817,1.974,1.9737,1.9735,0,0,0,0,0,0,0,0,0,0,0,0,0,0,0,0,0,0,0,0,0,0,0,0,0,0,0,0,0,0,0,0,0,0,0,0,0,0,0,0,0,0,0,0,0,0,0,0,0,0,0,0,0,0,0,0,0,0,0,0,0,0,0,0,0,0,0,0,0]}]]]